Regional Weather Roundup
Issued by NWS

Home | Current Version | Previous Version | Graphics & Text | Print | Product List | Glossary On
Versions: 1 2 3 4 5 6 7 8 9 10 11 12 13 14 15 16 17 18 19 20 21 22 23 24 25 26 27 28 29 30 31 32 33 34 35 36 37 38 39 40 41 42 43 44 45 46 47 48 49 50
000
ASUS43 KFSD 281710
RWRSD

WEATHER ROUNDUP FOR SOUTH DAKOTA
NATIONAL WEATHER SERVICE SIOUX FALLS SD
1200 PM CDT TUE MAR 28 2017

NOTE: "FAIR" INDICATES FEW OR NO CLOUDS BELOW 12,000 FEET WITH NO
SIGNIFICANT WEATHER AND/OR OBSTRUCTIONS TO VISIBILITY.


SDZ001>005-009-010-012>017-281800-
NORTHWEST AND NORTH CENTRAL SOUTH DAKOTA

CITY           SKY/WX    TMP DP  RH WIND       PRES   REMARKS
BUFFALO          N/A     55  40  56 SE9       29.98S
FAITH            N/A     48  42  80 MISG      30.06R
MOBRIDGE       CLOUDY    53  39  59 SE8       30.09R
$$

SDZ012>016-024>037-041>051-057-063-072>074-281800-
SOUTHWEST AND SOUTH CENTRAL SOUTH DAKOTA

CITY           SKY/WX    TMP DP  RH WIND       PRES   REMARKS
RAPID CTY ARPT LGT RAIN  42  38  85 CALM      30.03R FOG
PIERRE         CLOUDY    51  42  71 SE12      30.09R
CUSTER         LGT RAIN  38  35  89 NE9       30.02R
ELLSWORTH AFB  LGT RAIN  43  41  92 CALM      30.03R
PHILIP         RAIN      49  48  97 E8        30.06R FOG
PINE RIDGE     RAIN      46  44  93 E7        30.03S FOG
SPEARFISH      FAIR      46  39  76 CALM      30.04R
WINNER         LGT RAIN  50  46  86 SE12      30.10R
$$

SDZ004>011-016>023-039-040-281800-
NORTHEAST SOUTH DAKOTA

CITY           SKY/WX    TMP DP  RH WIND       PRES   REMARKS
ABERDEEN       CLOUDY    48  36  63 NE6       30.16S
WATERTOWN      CLOUDY    54  36  50 E10       30.14R
BROOKINGS      MOSUNNY   55  36  48 E10       30.14R
SISSETON         N/A     43  40  89 N3        30.17R
$$

SDZ017-020-022-023-036>040-048>070-281800-
SOUTHEAST SOUTH DAKOTA

CITY           SKY/WX    TMP DP  RH WIND       PRES   REMARKS
SIOUX FALLS    CLOUDY    55  40  56 E6        30.14S
HURON          CLOUDY    53  41  63 SE7       30.14R
CHAMBERLAIN    CLOUDY    54  45  71 SE3       30.12R
MITCHELL       CLOUDY    53  40  61 MISG      30.15R
YANKTON        PTSUNNY   52  39  62 E8        30.13F
$$

ABBREVIATIONS USED IN REMARKS
   TC - TEMPERATURE IN CELSIUS
  WCI - WIND CHILL INDEX
   HX - HEAT INDEX
  VSB - VISIBILITY





USA.gov is the U.S. government's official web portal to all federal, state and local government web resources and services.